FW6587 Weather Reports


time (UTC)temp
F
wind
direction
speed
knots
gust
knots
rain 1hr
in
rain 24hr
in
rain mn
in
humidity
%
barometer
mb
20221128072044 41 360 0.9 3.5 0.00 0.00 0.00 35 1012.5
20221128071604 41 0 0.9 3.5 0.00 0.00 0.00 36 1012.7
20221128071045 41 0 0.9 3.5 0.00 0.00 0.00 36 1012.7
20221128070544 41 0 0.0 2.6 0.00 0.00 0.00 36 1012.7
20221128070103 41 360 0.0 3.5 0.00 0.00 0.00 36 1012.7
20221128065545 41 0 0.0 4.3 0.00 0.00 0.00 36 1012.7
20221128065047 41 360 0.0 4.3 0.00 0.00 0.00 36 1012.8
20221128064605 41 360 0.0 2.6 0.00 0.00 0.00 36 1012.5
20221128064045 41 0 0.0 3.5 0.00 0.00 0.00 36 1012.8
20221128063544 41 0 0.0 3.5 0.00 0.00 0.00 36 1013.0
20221128063057 40 360 0.9 7.8 0.00 0.00 0.00 37 1012.9
20221128062544 39 0 0.0 7.8 0.00 0.00 0.00 37 1013.1
20221128062044 38 360 0.0 2.6 0.00 0.00 0.00 39 1013.3
20221128061555 38 360 0.9 2.6 0.00 0.00 0.00 39 1013.2
20221128061043 38 0 0.9 2.6 0.00 0.00 0.00 40 1013.3
20221128060546 37 0 0.0 1.7 0.00 0.00 0.00 40 1013.6
20221128060052 37 360 0.0 1.7 0.00 0.00 0.00 41 1013.5
20221128055545 37 360 0.0 1.7 0.00 0.00 0.00 40 1013.6
20221128055043 37 360 0.0 2.6 0.00 0.00 0.00 40 1013.5
20221128054602 38 0 0.9 2.6 0.00 0.00 0.00 40 1013.6
20221128054045 38 0 0.0 1.7 0.00 0.00 0.00 40 1013.7
20221128053544 38 360 0.0 3.5 0.00 0.00 0.00 38 1013.6
20221128053058 39 360 0.9 3.5 0.00 0.00 0.00 37 1013.7
20221128052544 39 360 0.0 0.9 0.00 0.00 0.00 38 1013.7
20221128052045 39 0 0.0 2.6 0.00 0.00 0.00 36 1013.6
20221128051556 39 360 0.0 2.6 0.00 0.00 0.00 36 1013.6
20221128051044 39 360 0.0 1.7 0.00 0.00 0.00 36 1013.4
20221128050544 39 0 0.0 3.5 0.00 0.00 0.00 37 1013.6
20221128050107 39 0 0.9 3.5 0.00 0.00 0.00 36 1013.5
20221128045545 39 360 0.9 2.6 0.00 0.00 0.00 37 1013.6
20221128045043 39 360 0.0 2.6 0.00 0.00 0.00 37 1013.5
20221128044552 40 0 0.0 2.6 0.00 0.00 0.00 36 1013.5
20221128044043 40 0 0.0 4.3 0.00 0.00 0.00 37 1013.7
20221128043546 40 0 0.0 5.2 0.00 0.00 0.00 37 1013.6
20221128043057 39 360 0.9 5.2 0.00 0.00 0.00 38 1013.6
20221128042544 38 360 0.9 7.0 0.00 0.00 0.00 39 1013.7
20221128042045 37 360 0.9 7.0 0.00 0.00 0.00 40 1013.8
20221128041600 36 360 0.9 4.3 0.00 0.00 0.00 41 1013.9
20221128041044 36 360 0.9 4.3 0.00 0.00 0.00 42 1014.4
20221128040544 35 0 0.9 4.3 0.00 0.00 0.00 42 1014.4
20221128040055 35 0 0.9 2.6 0.00 0.00 0.00 42 1014.4
20221128035547 35 360 0.0 1.7 0.00 0.00 0.00 42 1014.6
20221128035046 35 0 0.0 3.5 0.00 0.00 0.00 41 1014.1
20221128034557 35 360 0.9 3.5 0.00 0.00 0.00 42 1014.4
20221128034044 35 360 0.0 2.6 0.00 0.00 0.00 42 1014.4
20221128033545 35 360 0.0 3.5 0.00 0.00 0.00 43 1014.2
20221128033058 35 0 0.0 3.5 0.00 0.00 0.00 44 1014.5
20221128032543 35 0 0.9 3.5 0.00 0.00 0.00 46 1014.5
20221128032044 34 360 0.9 3.5 0.00 0.00 0.00 44 1014.5
20221128031600 34 360 0.0 1.7 0.00 0.00 0.00 42 1014.3
20221128031044 34 0 0.0 0.9 0.00 0.00 0.00 42 1014.0
20221128030544 34 0 0.0 0.9 0.00 0.00 0.00 42 1014.0
20221128030101 35 0 0.0 2.6 0.00 0.00 0.00 42 1014.0
20221128025547 35 0 0.0 2.6 0.00 0.00 0.00 42 1014.1
20221128025047 35 0 0.0 2.6 0.00 0.00 0.00 43 1014.2
20221128024559 35 360 0.9 2.6 0.00 0.00 0.00 42 1014.5
20221128024045 36 360 0.9 1.7 0.00 0.00 0.00 42 1014.1
20221128023546 35 0 0.0 1.7 0.00 0.00 0.00 37 1014.0
20221128023133 36 0 0.0 0.9 0.00 0.00 0.00 37 1013.8
20221128022544 36 360 0.0 0.9 0.00 0.00 0.00 36 1013.8
20221128022044 36 0 0.0 0.9 0.00 0.00 0.00 37 1013.8
20221128021604 36 0 0.0 0.9 0.00 0.00 0.00 37 1013.8
20221128021045 37 360 0.0 0.9 0.00 0.00 0.00 37 1014.1
20221128020544 37 0 0.0 0.9 0.00 0.00 0.00 37 1014.1
20221128020101 37 0 0.0 0.9 0.00 0.00 0.00 36 1014.2
20221128015544 37 0 0.0 0.9 0.00 0.00 0.00 36 1014.4
20221128015044 37 0 0.0 1.7 0.00 0.00 0.00 37 1014.5
20221128014608 38 360 0.0 1.7 0.00 0.00 0.00 36 1014.7
20221128014044 38 360 0.0 1.7 0.00 0.00 0.00 35 1015.1
20221128013543 38 0 0.0 1.7 0.00 0.00 0.00 35 1015.1
20221128013056 39 360 0.0 1.7 0.00 0.00 0.00 36 1015.3
20221128012543 39 360 0.9 1.7 0.00 0.00 0.00 35 1015.5
20221128012044 39 0 0.9 1.7 0.00 0.00 0.00 35 1015.6
20221128011601 40 0 0.0 1.7 0.00 0.00 0.00 32 1015.8
20221128011043 40 0 0.0 1.7 0.00 0.00 0.00 31 1015.8
20221128010545 40 0 0.0 0.9 0.00 0.00 0.00 29 1015.7
20221128010102 41 0 0.0 0.9 0.00 0.00 0.00 28 1015.9
20221128005545 41 0 0.0 0.0 0.00 0.00 0.00 26 1016.0
20221128005044 42 0 0.0 1.7 0.00 0.00 0.00 26 1015.8
20221128004604 42 0 0.0 1.7 0.00 0.00 0.00 27 1015.8
20221128004044 42 360 0.0 4.3 0.00 0.00 0.00 26 1015.9
20221128003544 42 0 0.0 4.3 0.00 0.00 0.00 26 1016.0
20221128003118 42 360 0.9 3.5 0.00 0.00 0.00 27 1016.2
20221128002544 41 360 0.9 3.5 0.00 0.00 0.00 30 1016.0
20221128002044 42 360 0.0 2.6 0.00 0.00 0.00 36 1016.1
20221128001556 42 0 0.9 4.3 0.00 0.00 0.00 37 1016.3
20221128001045 42 360 0.9 4.3 0.00 0.00 0.00 37 1016.3
20221128000543 42 360 0.0 0.9 0.00 0.00 0.00 38 1016.2
20221128000119 43 0 0.0 0.9 0.00 0.00 0.00 36 1016.2
20221127235547 44 0 0.0 0.9 0.00 0.00 0.00 35 1016.1
20221127235045 44 0 0.0 0.9 0.00 0.00 0.00 35 1016.0
20221127234602 45 0 0.0 0.9 0.00 0.00 0.00 34 1016.1
20221127234044 45 0 0.0 0.9 0.00 0.00 0.00 33 1016.0
20221127233544 46 0 0.0 1.7 0.00 0.00 0.00 32 1016.2
20221127233052 47 0 0.0 3.5 0.00 0.00 0.00 31 1016.1
20221127232545 47 0 0.9 3.5 0.00 0.00 0.00 30 1016.0
20221127232043 47 360 0.0 2.6 0.00 0.00 0.00 29 1016.0
20221127231552 48 360 0.0 3.5 0.00 0.00 0.00 21 1015.9
20221127231044 48 0 0.9 3.5 0.00 0.00 0.00 23 1015.8
20221127230544 48 360 0.0 2.6 0.00 0.00 0.00 25 1015.6
20221127230103 48 0 0.9 2.6 0.00 0.00 0.00 24 1015.5
20221127225546 49 360 0.9 2.6 0.00 0.00 0.00 24 1015.7
20221127225044 49 360 0.9 2.6 0.00 0.00 0.00 24 1015.7
20221127224552 49 0 0.0 2.6 0.00 0.00 0.00 24 1015.6
20221127224043 49 0 0.0 5.2 0.00 0.00 0.00 24 1015.7
20221127223543 49 360 0.9 5.2 0.00 0.00 0.00 23 1015.8
20221127223127 49 360 0.9 3.5 0.00 0.00 0.00 24 1015.8
20221127222548 50 360 0.9 7.0 0.00 0.00 0.00 23 1015.8
20221127222044 50 360 0.9 7.0 0.00 0.00 0.00 24 1015.8
20221127221558 50 360 0.9 5.2 0.00 0.00 0.00 24 1016.1
20221127221044 50 360 1.7 5.2 0.00 0.00 0.00 22 1016.2
20221127220542 51 360 0.9 5.2 0.00 0.00 0.00 23 1016.4
20221127220047 50 360 0.9 3.5 0.00 0.00 0.00 24 1016.4
20221127215545 50 360 0.9 2.6 0.00 0.00 0.00 24 1016.3
20221127215045 49 0 0.9 3.5 0.00 0.00 0.00 25 1016.5
20221127214555 48 360 0.9 3.5 0.00 0.00 0.00 26 1016.4
20221127214043 47 360 0.9 3.5 0.00 0.00 0.00 26 1016.4
20221127213550 47 360 0.0 3.5 0.00 0.00 0.00 26 1016.5
20221127213108 47 360 0.9 7.8 0.00 0.00 0.00 26 1016.4
20221127212544 47 360 2.6 9.6 0.00 0.00 0.00 27 1016.6
20221127212045 47 360 2.6 9.6 0.00 0.00 0.00 27 1016.6
20221127211552 47 360 2.6 10.4 0.00 0.00 0.00 26 1016.7
20221127211044 47 360 0.9 10.4 0.00 0.00 0.00 26 1016.8
20221127210544 47 360 1.7 7.8 0.00 0.00 0.00 25 1016.9
20221127210106 48 360 0.9 7.0 0.00 0.00 0.00 26 1017.1
20221127205545 48 360 1.7 7.0 0.00 0.00 0.00 28 1017.2
20221127205043 48 360 2.6 7.8 0.00 0.00 0.00 25 1017.1
20221127204605 48 360 2.6 8.7 0.00 0.00 0.00 26 1017.1
20221127204044 49 360 3.5 11.3 0.00 0.00 0.00 26 1017.2
20221127203549 49 360 2.6 11.3 0.00 0.00 0.00 25 1017.3
20221127203100 49 360 2.6 7.0 0.00 0.00 0.00 25 1017.4
20221127202547 49 360 1.7 5.2 0.00 0.00 0.00 27 1017.4
20221127202044 49 360 1.7 5.2 0.00 0.00 0.00 29 1017.5
20221127201616 49 0 0.9 2.6 0.00 0.00 0.00 36 1017.6
20221127201051 50 360 0.0 2.6 0.00 0.00 0.00 37 1017.6
20221127200543 49 360 0.9 3.5 0.00 0.00 0.00 37 1017.6
20221127200101 49 0 0.9 3.5 0.00 0.00 0.00 38 1017.7
20221127195543 48 0 0.9 3.5 0.00 0.00 0.00 38 1017.9
20221127195043 48 360 0.9 3.5 0.00 0.00 0.00 37 1018.0
20221127194552 48 360 0.9 3.5 0.00 0.00 0.00 40 1018.0
20221127194048 48 360 0.9 4.3 0.00 0.00 0.00 42 1018.2
20221127193543 48 360 0.9 4.3 0.00 0.00 0.00 43 1018.2
20221127193053 47 360 0.0 4.3 0.00 0.00 0.00 44 1018.1
20221127192543 47 360 0.0 2.6 0.00 0.00 0.00 43 1018.3
20221127192044 47 360 0.0 3.5 0.00 0.00 0.00 45 1018.3
20221127191606 47 360 0.0 5.2 0.00 0.00 0.00 46 1018.4
20221127191049 47 360 1.7 5.2 0.00 0.00 0.00 45 1018.5
20221127190543 47 360 0.9 4.3 0.00 0.00 0.00 46 1018.5
20221127190053 47 360 0.9 4.3 0.00 0.00 0.00 47 1018.5
20221127185547 47 360 0.9 4.3 0.00 0.00 0.00 46 1018.5
20221127185046 47 360 0.9 5.2 0.00 0.00 0.00 46 1018.6
20221127184607 46 360 1.7 5.2 0.00 0.00 0.00 48 1018.6
20221127184043 46 360 0.9 3.5 0.00 0.00 0.00 49 1018.8
20221127183545 46 0 0.9 3.5 0.00 0.00 0.00 49 1018.8
20221127183102 45 360 0.0 4.3 0.00 0.00 0.00 50 1019.1
20221127182546 44 360 0.9 4.3 0.00 0.00 0.00 51 1019.4
20221127182043 44 360 0.9 4.3 0.00 0.00 0.00 51 1019.5
20221127181601 44 360 0.9 5.2 0.00 0.00 0.00 52 1019.7
20221127181053 44 360 1.7 5.2 0.00 0.00 0.00 52 1019.7
20221127180550 44 360 1.7 7.8 0.00 0.00 0.00 53 1019.8
20221127180056 43 360 0.9 7.8 0.00 0.00 0.00 54 1020.0
20221127175547 43 360 1.7 3.5 0.00 0.00 0.00 55 1020.0
20221127175048 42 0 0.0 3.5 0.00 0.00 0.00 56 1020.2
20221127174601 43 0 0.9 4.3 0.00 0.00 0.00 54 1020.3
20221127174048 42 360 1.7 4.3 0.00 0.00 0.00 57 1020.4
20221127173548 42 360 0.9 3.5 0.00 0.00 0.00 58 1020.5
20221127173052 42 360 0.9 3.5 0.00 0.00 0.00 58 1020.6
20221127172548 42 360 0.0 7.0 0.00 0.00 0.00 59 1020.8
20221127172048 41 360 1.7 7.0 0.00 0.00 0.00 60 1020.9
20221127171557 41 360 0.9 3.5 0.00 0.00 0.00 60 1020.9
20221127171049 41 360 0.9 3.5 0.00 0.00 0.00 61 1020.8
20221127170547 41 360 0.9 4.3 0.00 0.00 0.00 62 1020.9
20221127170055 40 360 0.9 4.3 0.00 0.00 0.00 63 1021.0
20221127165547 40 360 0.9 4.3 0.00 0.00 0.00 63 1021.3
20221127165047 40 360 0.9 4.3 0.00 0.00 0.00 64 1021.3
20221127164557 40 360 0.9 4.3 0.00 0.00 0.00 65 1021.5
20221127164047 39 360 0.0 3.5 0.00 0.00 0.00 66 1021.3
20221127163547 39 360 0.9 4.3 0.00 0.00 0.00 67 1021.5
20221127163111 39 360 1.7 4.3 0.00 0.00 0.00 69 1021.3
20221127162546 38 360 0.0 7.8 0.00 0.00 0.00 70 1021.3
20221127162047 38 360 1.7 7.8 0.00 0.00 0.00 72 1021.5
20221127161610 37 360 0.9 7.8 0.00 0.00 0.00 73 1021.5
20221127161046 37 360 0.9 3.5 0.00 0.00 0.00 74 1021.5
20221127160548 37 0 0.0 2.6 0.00 0.00 0.00 75 1021.5
20221127160053 36 0 0.0 3.5 0.00 0.00 0.00 77 1021.5
20221127155551 36 0 0.9 3.5 0.00 0.00 0.00 78 1021.5
20221127155049 35 360 0.9 2.6 0.00 0.00 0.00 80 1021.7
20221127154557 35 360 0.0 2.6 0.00 0.00 0.00 81 1021.8
20221127154050 34 0 0.9 2.6 0.00 0.00 0.00 82 1022.0
20221127153548 34 360 0.0 1.7 0.00 0.00 0.00 83 1022.1
20221127153052 33 0 0.0 1.7 0.00 0.00 0.00 84 1022.0
20221127152551 33 360 0.0 1.7 0.00 0.00 0.00 85 1022.2
20221127152049 33 0 0.0 1.7 0.00 0.00 0.00 85 1022.3
20221127151552 32 0 0.0 1.7 0.00 0.00 0.00 86 1022.3
20221127151050 32 0 0.0 1.7 0.00 0.00 0.00 86 1022.3
20221127150545 32 360 0.0 1.7 0.00 0.00 0.00 86 1022.3
20221127150054 31 0 0.0 0.9 0.00 0.00 0.00 86 1022.4
20221127145544 31 0 0.0 0.9 0.00 0.00 0.00 86 1022.6
20221127145044 31 0 0.0 0.9 0.00 0.00 0.00 86 1022.4
20221127144552 31 0 0.0 0.9 0.00 0.00 0.00 85 1022.6
20221127144050 31 0 0.0 0.9 0.00 0.00 0.00 85 1022.4
20221127143550 31 0 0.0 0.9 0.00 0.00 0.00 85 1022.5
20221127143049 31 0 0.0 1.7 0.00 0.00 0.00 85 1022.6
20221127142545 30 92 0.0 1.7 0.00 0.00 0.00 84 1022.7
20221127142044 30 0 0.0 0.9 0.00 0.00 0.00 84 1022.6
20221127141602 31 0 0.0 0.0 0.00 0.00 0.00 84 1022.7
20221127141046 31 0 0.0 0.0 0.00 0.00 0.00 83 1022.7
20221127140545 31 0 0.0 0.0 0.00 0.00 0.00 83 1022.6
20221127140051 32 0 0.0 0.0 0.00 0.00 0.00 83 1022.7
20221127135544 32 0 0.0 0.0 0.00 0.00 0.00 83 1022.8
20221127135043 32 0 0.0 0.0 0.00 0.00 0.00 83 1022.8
20221127134605 32 0 0.0 0.9 0.00 0.00 0.00 83 1022.7
20221127134044 33 0 0.0 0.9 0.00 0.00 0.00 83 1022.7
20221127133543 33 0 0.0 0.9 0.00 0.00 0.00 83 1022.9
20221127133052 33 0 0.0 0.9 0.00 0.00 0.00 82 1022.8
20221127132544 33 0 0.0 0.9 0.00 0.00 0.00 82 1022.9
20221127132050 33 0 0.0 0.9 0.00 0.00 0.00 82 1022.8
20221127131552 33 0 0.0 0.9 0.00 0.00 0.00 82 1023.0
20221127131046 33 0 0.0 0.9 0.00 0.00 0.00 82 1023.0
20221127130546 33 0 0.0 1.7 0.00 0.00 0.00 81 1022.9
20221127130056 33 0 0.0 1.7 0.00 0.00 0.00 81 1022.9
20221127125543 33 0 0.0 1.7 0.00 0.00 0.00 81 1022.9
20221127125046 33 0 0.0 1.7 0.00 0.00 0.00 81 1022.8
20221127124557 33 0 0.0 0.9 0.00 0.00 0.00 81 1022.8
20221127124045 33 0 0.0 0.9 0.00 0.00 0.00 81 1022.7
20221127123544 33 0 0.0 0.9 0.00 0.00 0.00 81 1022.7
20221127123055 33 0 0.0 0.0 0.00 0.00 0.00 80 1022.7
20221127122544 33 0 0.0 0.0 0.00 0.00 0.00 80 1022.6
20221127122042 33 0 0.0 0.0 0.00 0.00 0.00 80 1022.7
20221127121551 33 0 0.0 0.0 0.00 0.00 0.00 80 1022.7
20221127121044 33 0 0.0 0.0 0.00 0.00 0.00 80 1022.7
20221127120544 33 0 0.0 0.0 0.00 0.00 0.00 80 1022.8
20221127120055 33 0 0.0 0.0 0.00 0.00 0.00 80 1022.9
20221127115544 33 0 0.0 0.0 0.00 0.00 0.00 80 1022.9
20221127115044 33 0 0.0 0.0 0.00 0.00 0.00 80 1022.8
20221127114553 33 0 0.0 0.0 0.00 0.00 0.00 80 1022.9
20221127114047 33 0 0.0 0.0 0.00 0.00 0.00 80 1022.9
20221127113545 34 0 0.0 0.0 0.00 0.00 0.00 80 1022.9
20221127113052 34 0 0.0 0.0 0.00 0.00 0.00 80 1022.9
20221127112547 34 0 0.0 0.9 0.00 0.00 0.00 79 1023.0
20221127112047 34 0 0.0 0.9 0.00 0.00 0.00 79 1023.0
20221127111557 34 0 0.0 0.9 0.00 0.00 0.00 79 1022.8
20221127111048 34 0 0.0 0.0 0.00 0.00 0.00 79 1022.8
20221127110545 34 0 0.0 0.0 0.00 0.00 0.00 79 1022.9
20221127110104 34 0 0.0 0.9 0.00 0.00 0.00 79 1022.9
20221127105544 34 0 0.0 0.9 0.00 0.00 0.00 79 1022.8
20221127105044 34 0 0.0 0.9 0.00 0.00 0.00 79 1023.0
20221127104613 34 0 0.0 0.9 0.00 0.00 0.00 79 1022.9
20221127104046 34 0 0.0 0.9 0.00 0.00 0.00 79 1023.1
20221127103544 34 0 0.0 0.9 0.00 0.00 0.00 79 1023.0
20221127103100 34 0 0.0 1.7 0.00 0.00 0.00 79 1023.0
20221127102547 34 0 0.0 1.7 0.00 0.00 0.00 79 1023.1
20221127102046 34 0 0.0 0.0 0.00 0.00 0.00 79 1023.1
20221127101648 34 0 0.0 0.9 0.00 0.00 0.00 79 1023.1
20221127101044 34 0 0.0 0.9 0.00 0.00 0.00 79 1023.1
20221127100544 34 0 0.0 1.7 0.00 0.00 0.00 79 1023.1
20221127100053 34 0 0.0 1.7 0.00 0.00 0.00 79 1023.1
20221127095547 34 0 0.0 1.7 0.00 0.00 0.00 79 1023.2
20221127095047 34 0 0.0 1.7 0.00 0.00 0.00 79 1023.2
20221127094637 34 0 0.0 1.7 0.00 0.00 0.00 79 1023.2
20221127094044 34 0 0.0 0.9 0.00 0.00 0.00 80 1023.2
20221127093544 34 0 0.0 0.9 0.00 0.00 0.00 80 1023.2
20221127093104 34 0 0.0 1.7 0.00 0.00 0.00 80 1023.3
20221127092550 34 0 0.0 1.7 0.00 0.00 0.00 81 1023.2
20221127092044 34 0 0.0 0.9 0.00 0.00 0.00 81 1023.3
20221127091558 34 0 0.0 0.9 0.00 0.00 0.00 81 1023.4
20221127091047 34 0 0.0 0.9 0.00 0.00 0.00 81 1023.3
20221127090545 34 0 0.0 0.0 0.00 0.00 0.00 81 1023.4
20221127090055 34 0 0.0 0.9 0.00 0.00 0.00 81 1023.4
20221127085544 34 0 0.0 0.9 0.00 0.00 0.00 81 1023.3
20221127085043 34 0 0.0 0.0 0.00 0.00 0.00 81 1023.3
20221127084613 34 0 0.0 0.0 0.00 0.00 0.00 81 1023.2
20221127084044 34 0 0.0 0.0 0.00 0.00 0.00 81 1023.3
20221127083547 34 0 0.0 0.0 0.00 0.00 0.00 81 1023.3
20221127083059 34 0 0.0 0.0 0.00 0.00 0.00 81 1023.4
20221127082544 34 0 0.0 0.0 0.00 0.00 0.00 80 1023.2
20221127082044 34 0 0.0 0.0 0.00 0.00 0.00 81 1023.4
20221127081557 34 0 0.0 0.0 0.00 0.00 0.00 80 1023.4
20221127081042 34 0 0.0 0.0 0.00 0.00 0.00 80 1023.3
20221127080544 34 0 0.0 0.0 0.00 0.00 0.00 80 1023.3
20221127080050 34 0 0.0 0.0 0.00 0.00 0.00 80 1023.3
20221127075544 34 0 0.0 0.9 0.00 0.00 0.00 80 1023.4
20221127075045 34 0 0.0 0.9 0.00 0.00 0.00 80 1023.4
20221127074552 34 0 0.0 0.9 0.00 0.00 0.00 80 1023.6
20221127074044 34 0 0.0 0.9 0.00 0.00 0.00 80 1023.5
20221127073543 35 0 0.0 0.9 0.00 0.00 0.00 80 1023.6
20221127073052 35 0 0.0 0.9 0.00 0.00 0.00 79 1023.6
20221127072544 35 0 0.0 0.9 0.00 0.00 0.00 79 1023.7